Back to catalog

STARLINK-32128

AliveCommunicationsVLEO
NORAD 60272·PAYLOAD·🇺🇸 United States

Launched Jul 27, 2024 from Cape Canaveral Space Force Station

Loading…

Next Passes (next 24 hours)

TLE

FreshSource: CelesTrak SupGP

Epoch: Sep 14, 2026, 15:02 UTC

1 60272C 24131T   26257.62687500 -.00031736  00000+0 -93810-3 0  2576
2 60272  53.1579 253.1315 0001300  79.4426 142.6912 15.34390740    17

Track STARLINK-32128 in real time with AllMySat

Download on the App Store